KC5EZZ-6 Weather Reports


Display with metric or nautical units.
time (UTC)temp
F
wind
direction
speed
MPH
gust
MPH
rain 1hr
in
rain 24hr
in
rain mn
in
humidity
%
barometer
mb
20260831021228 86 124 0.0 0.0 0.00 0.00 0.00
20260831020728 86 124 0.0 0.0 0.00 0.00 0.00
20260831020221 86 124 0.0 0.0 0.00 0.00 0.00
20260831015719 87 124 0.0 0.0 0.00 0.00 0.00
20260831015219 87 124 0.0 0.0 0.00 0.00 0.00
20260831014713 87 124 0.0 0.0 0.00 0.00 0.00
20260831014212 87 124 0.0 0.0 0.00 0.00 0.00
20260831013709 88 124 0.0 0.0 0.00 0.00 0.00
20260831013204 88 124 0.0 0.0 0.00 0.00 0.00
20260831012703 88 124 0.0 0.0 0.00 0.00 0.00
20260831012202 89 124 0.0 0.0 0.00 0.00 0.00
20260831011655 89 124 0.0 0.0 0.00 0.00 0.00
20260831011156 89 124 0.0 0.0 0.00 0.00 0.00
20260831010654 90 124 0.0 0.0 0.00 0.00 0.00
20260831010148 90 124 0.0 0.0 0.00 0.00 0.00
20260831005647 91 124 0.0 0.0 0.00 0.00 0.00
20260831005239 91 124 0.0 0.0 0.00 0.00 0.00
20260831005146 91 124 0.0 0.0 0.00 0.00 0.00
20260831004641 92 124 0.0 0.0 0.00 0.00 0.00
20260831004140 92 124 0.0 0.0 0.00 0.00 0.00
20260831003639 93 124 0.0 0.0 0.00 0.00 0.00
20260831003132 93 124 0.0 0.0 0.00 0.00 0.00
20260831002631 93 124 0.0 0.0 0.00 0.00 0.00
20260831002131 94 124 0.0 0.0 0.00 0.00 0.00
20260831001625 94 124 0.0 0.0 0.00 0.00 0.00
20260831000624 95 124 0.0 0.0 0.00 0.00 0.00
20260831000113 96 124 0.0 1.0 0.00 0.00 0.00
20260830235612 96 121 0.0 0.0 0.00 0.00 0.00
20260830234604 97 63 0.0 0.0 0.00 0.00 0.00
20260830231550 99 97 0.0 2.0 0.00 0.00 0.00
20260830231049 100 104 0.0 0.0 0.00 0.00 0.00
20260830230553 100 104 0.0 0.0 0.00 0.00 0.00
20260830230041 101 141 0.0 0.0 0.00 0.00 0.00
20260830225036 101 141 0.0 0.0 0.00 0.00 0.00
20260830224530 102 135 0.0 0.0 0.00 0.00 0.00
20260830223023 103 135 0.0 0.0 0.00 0.00 0.00
20260830222522 102 135 0.0 0.0 0.00 0.00 0.00
20260830222022 102 135 0.0 0.0 0.00 0.00 0.00
20260830221513 102 135 0.0 0.0 0.00 0.00 0.00
20260830221012 103 135 0.0 0.0 0.00 0.00 0.00
20260830220005 101 135 0.0 5.0 0.00 0.00 0.00
20260830214458 103 62 1.0 0.0 0.00 0.00 0.00
20260830213455 102 62 0.0 0.0 0.00 0.00 0.00
20260830211607 104 155 1.0 0.0 0.00 0.00 0.00
20260830211605 105 235 0.0 0.0 0.00 0.00 0.00
20260830211443 105 62 0.0 0.0 0.00 0.00 0.00
20260830210441 104 62 0.0 0.0 0.00 0.00 0.00
20260830205936 104 155 1.0 0.0 0.00 0.00 0.00
20260830205434 105 235 0.0 0.0 0.00 0.00 0.00
20260830204235 105 235 0.0 0.0 0.00 0.00 0.00
20260830203926 105 235 0.0 0.0 0.00 0.00 0.00
20260830203426 105 79 0.0 0.0 0.00 0.00 0.00
20260830202920 101 79 0.0 0.0 0.00 0.00 0.00
20260830200411 104 79 0.0 0.0 0.00 0.00 0.00
20260830194358 106 158 1.0 0.0 0.00 0.00 0.00
20260830193857 107 165 0.0 0.0 0.00 0.00 0.00
20260830170740 100 177 0.0 0.0 0.00 0.00 0.00
20260830145641 90 177 0.0 0.0 0.00 0.00 0.00
20260830141625 89 177 0.0 0.0 0.00 0.00 0.00
20260830140622 88 177 0.0 0.0 0.00 0.00 0.00
20260830125548 80 177 0.0 0.0 0.00 0.00 0.00
20260830123041 74 177 0.0 0.0 0.00 0.00 0.00
20260830122748 73 177 0.0 0.0 0.00 0.00 0.00
20260830122533 73 177 0.0 0.0 0.00 0.00 0.00
20260830122032 72 177 0.0 0.0 0.00 0.00 0.00
20260830121543 71 177 0.0 0.0 0.00 0.00 0.00
20260830112504 72 177 0.0 0.0 0.00 0.00 0.00
20260830110456 73 177 0.0 0.0 0.00 0.00 0.00
20260830104450 73 177 0.0 0.0 0.00 0.00 0.00
20260830102438 74 177 0.0 0.0 0.00 0.00 0.00
20260830095425 75 177 0.0 0.0 0.00 0.00 0.00
20260830094424 75 177 0.0 0.0 0.00 0.00 0.00
20260830091915 76 177 0.0 0.0 0.00 0.00 0.00
20260830085906 76 177 0.0 0.0 0.00 0.00 0.00
20260830085402 77 177 0.0 0.0 0.00 0.00 0.00
20260830082347 77 177 0.0 0.0 0.00 0.00 0.00
20260830074834 78 177 0.0 0.0 0.00 0.00 0.00